{"data":{"norad_id":39360,"epoch":"2026-05-25T03:42:38.615040Z","epoch_age_seconds":64706,"freshness":"FRESH","line1":"1 39360U 13058A   26145.15461360 -.00000018  00000+0  00000+0 0  9990","line2":"2 39360   0.0041  33.1254 0001973 104.3313  44.5852  1.00269962 45845","mean_motion":1.00269962,"eccentricity":0.0001973,"inclination_deg":0.0041,"raan_deg":33.1254,"arg_perigee_deg":104.3313,"mean_anomaly_deg":44.5852,"bstar":0,"rev_number":4584,"period_min":1436.1230135901,"perigee_km":35778.786819562,"apogee_km":35795.425224459,"semimajor_km":42165.24302201,"source":"CELESTRAK","updated_at":"2026-05-25T13:38:14.332781Z"}}